Location: Houston
(29.7630°N, 95.3630°W)
Time: 20:56:21
(UTC-06:00)

Saudisat 1A - Visible Passes

Search period start: 27 November 2014 00:00
Search period end: 07 December 2014 00:00
Orbit: 595 x 610 km, 64.6° (Epoch: 27 November)

Date Brightness Start Highest point End Pass type
(mag) Time Alt. Az. Time Alt. Az. Time Alt. Az.
29 Nov 10.7 05:45:25 10° NNE 05:47:28 13° NE 05:49:29 10° E visible
30 Nov 10.1 05:55:56 10° N 05:59:34 24° NE 06:03:10 10° ESE visible
01 Dec 8.9 06:07:14 10° NNW 06:11:32 48° ENE 06:15:48 10° SE visible
02 Dec 8.0 06:18:57 10° NNW 06:23:23 79° WSW 06:27:47 10° SSE visible
03 Dec 10.5 04:53:17 13° NNE 04:55:31 17° NE 04:58:27 10° E visible
03 Dec 8.7 06:31:04 10° NW 06:35:08 36° WSW 06:39:10 10° S visible
03 Dec 10.3 18:53:32 10° SSE 18:53:49 11° SE 18:53:49 11° SE visible
04 Dec 9.5 05:05:36 23° NNE 05:07:32 33° ENE 05:11:31 10° ESE visible
04 Dec 9.3 19:03:59 10° S 19:06:22 26° SSE 19:06:22 26° SSE visible
05 Dec 8.2 05:17:59 40° N 05:19:26 68° ENE 05:23:49 10° SE visible
05 Dec 8.3 19:15:19 10° SSW 19:18:52 58° S 19:18:52 58° S visible
06 Dec 8.1 05:30:25 48° WNW 05:31:13 55° WSW 05:35:31 10° SSE visible
06 Dec 10.0 17:51:24 10° ESE 17:52:26 11° ESE 17:53:29 10° E visible
06 Dec 8.7 19:27:15 10° SW 19:31:19 49° WNW 19:31:19 49° WNW visible
